2025-197B (65489 NORAD) Tracking and Keplerian Element Data

This shows tracking and keplerian element data for the satellite.

Feedback or suggestion? Click here.




ElementValue
Catalog65489
Name2025-197B
Epoch Orbit1607
Epoch Day354.25765891
Epoch Year2025
RAAN178.3391
Inclination97.4055
Eccentricity0.0012389
Argument of Perigee278.3594
Mean Anonmoly81.6237
Mean Motion15.21182083
Decay Rate4.153E-05
L11 65489U 25197B 25354.25765891 .00004153 00000+0 18907-3 0 9998
L22 65489 97.4055 178.3391 0012389 278.3594 81.6237 15.21182083 16079



Live tracking and technical data element details for 2025-197B (NORAD 65489). 2025-197B can be tracked NOW for your location showing map with azimuth and elevation plus other details from your city location.







IsCatalogInMostPopularTable: catalog: 65489, numindb: 3
Update: records affected: 1



GetName: 65489 2025-197B

Hit Count: updated at: Wed, 15 Apr 2026 01:10:52 GMT